CZ-6A DEB, 60683

Orbit data source: Space-Track

CZ-6A DEB, 60683 is space debris in LEO originally from a launch on Tue, 06 Aug 2024 UTC launched from the Taiyaun Space Center, China (TSC). Debris objects in space refer to the collection of defunct objects orbiting the Earth. Examples of debris include non-operational satellites, rocket bodies, and fragments generated from explosions, collisions, or faulty payload assembly.

Loading next visibility...
Identifier
60683, 2024-140CL
Orbit
LEO
Country
Flag of CNCN / PRC
Related business
Manufacturer
SAST
Mission
Spacecraft
Bus & Motor
Unknown
Mass
Unknown
Launch date (UTC)
2024-08-06 (2 years ago)
Launch vehicle
Unknown
Launch site
Taiyaun Space Center, China (TSC)
Object type
Payload
Rocket body
Debris
Shape & HBR
Unknown shape, 0.2 m
Radar Cross Section
Medium (>0.1 m² and <1 m²)

Expand to show TLE details & history
Last TLE update: 12 hours ago

TLE from 12 hours ago
0 CZ-6A DEB
1 60683U 24140CL  26171.33178712  .00001004  00000-0  40830-3 0  9996
2 60683  89.0028 273.7848 0027771 185.7179 174.3702 14.26648100 96891
Epoch: 2026-06-20T07:57Z
TLE epoch observation values (Epoch: 2026-06-20T07:57:46.407Z)
Latitude
-0.00001°
Longitude
-114.2065°
Altitude
825.871 km
Speed
7.43 km/s
True Right ascension
18h 15m 08s
True Declination
0° 00' 00"
Sunlit
Object was in full shadow at epoch
Visualization orbit readout
Latitude
Unknown
Longitude
Unknown
Altitude
Unknown
Speed
Unknown
Apparent Right ascension
Unknown
Apparent Declination
Unknown
Sunlit
N/A
Visualization observer readout
Local Sidereal Time
07:20:52
Azimuth
Unknown
Elevation
Unknown
Doppler factor
Unknown
Orbital elements
Apogee altitude
819.833 km
Perigee altitude
779.964 km
Semi-major axis
7,178.035 km
Eccentricity
0.00278
Inclination
89.0028°
RAAN
273.7848°
Arg. of periapsis
185.7179°
True anomaly
174.40131°
Mean anomaly
174.3702°
Eccentric anomaly
174.38577°
Mean motion
3.5689 °/min
Orbital period
100.87 mins
BSTAR
0.0004083
Loading maneuver chart data...
Computing Atmospheric mass density...
Loading historical data...
Loading historical data...
Loading historical data...
Loading historical data...
Loading historical data...
Loading historical data...
Loading historical data...

Documentation

Showing up to 5 results
|